Total_Precipitation_Accumulation
0.11 0.12 0.12 0.10 0.09 0.08 0.07 0.04 0.03 0.02 0.02 0.03 0.02 0.01 0.00 0.00 0.00 0.00 0.02 0.04 0.06 0.07 0.06 0.10 0.15 0.20 0.15 0.09 0.01 0.00 0.00 0.00 0.00 0.01 0.04 0.04 0.05 0.03 0.03 0.01 0.02 0.00 0.00 0.00 0.00 0.00 0.00
0.10 0.09 0.09 0.09 0.10 0.12 0.12 0.08 0.04 0.03 0.02 0.02 0.02 0.01 0.00 0.00 0.00 0.00 0.01 0.03 0.05 0.05 0.08 0.07 0.17 0.29 0.09 0.03 0.00 0.00 0.00 0.00 0.00 0.01 0.03 0.07 0.05 0.01 0.02 0.01 0.02 0.00 0.00 0.00 0.00 0.00 0.00
0.08 0.10 0.08 0.08 0.10 0.13 0.13 0.12 0.09 0.05 0.03 0.03 0.04 0.04 0.01 0.00 0.00 0.00 0.00 0.00 0.02 0.09 0.19 0.20 0.26 0.28 0.10 0.00 0.00 0.00 0.00 0.00 0.00 0.01 0.03 0.02 0.05 0.14 0.06 0.03 0.00 0.00 0.01 0.00 0.00 0.00 0.00
0.08 0.09 0.09 0.09 0.10 0.11 0.11 0.11 0.12 0.08 0.04 0.06 0.07 0.06 0.04 0.02 0.01 0.03 0.05 0.05 0.04 0.07 0.10 0.14 0.37 0.38 0.07 0.00 0.00 0.00 0.00 0.00 0.00 0.01 0.09 0.14 0.22 0.14 0.09 0.06 0.03 0.03 0.04 0.01 0.00 0.00 0.00
0.09 0.08 0.07 0.08 0.09 0.09 0.10 0.10 0.09 0.09 0.08 0.08 0.09 0.10 0.10 0.08 0.07 0.06 0.08 0.10 0.09 0.13 0.20 0.36 0.33 0.26 0.04 0.00 0.00 0.00 0.00 0.00 0.00 0.01 0.09 0.17 0.28 0.20 0.12 0.11 0.11 0.07 0.03 0.01 0.00 0.00 0.00
0.08 0.08 0.08 0.08 0.09 0.08 0.09 0.09 0.10 0.11 0.14 0.14 0.10 0.12 0.17 0.23 0.18 0.14 0.16 0.20 0.24 0.23 0.33 0.33 0.23 0.27 0.03 0.00 0.00 0.00 0.00 0.00 0.05 0.12 0.20 0.29 0.25 0.32 0.21 0.22 0.13 0.02 0.01 0.00 0.00 0.00 0.00
0.08 0.08 0.08 0.08 0.08 0.08 0.08 0.10 0.11 0.10 0.11 0.14 0.12 0.13 0.16 0.21 0.26 0.35 0.36 0.61 0.29 0.24 0.17 0.07 0.11 0.08 0.01 0.01 0.00 0.00 0.00 0.00 0.04 0.18 0.19 0.31 0.37 0.32 0.19 0.11 0.02 0.01 0.02 0.01 0.00 0.00 0.00
0.11 0.14 0.13 0.12 0.12 0.14 0.15 0.15 0.13 0.12 0.12 0.13 0.14 0.15 0.20 0.22 0.28 0.37 0.35 0.30 0.13 0.08 0.13 0.06 0.01 0.01 0.07 0.04 0.03 0.03 0.01 0.02 0.05 0.13 0.24 0.45 0.38 0.07 0.09 0.06 0.07 0.04 0.04 0.04 0.01 0.00 0.01
0.14 0.15 0.12 0.12 0.15 0.18 0.20 0.18 0.16 0.16 0.17 0.18 0.20 0.23 0.35 0.40 0.41 0.48 0.42 0.35 0.38 0.24 0.52 0.27 0.02 0.01 0.05 0.10 0.05 0.13 0.03 0.09 0.05 0.10 0.33 0.39 0.25 0.06 0.18 0.14 0.14 0.13 0.04 0.03 0.03 0.01 0.01
0.18 0.24 0.25 0.25 0.21 0.19 0.20 0.22 0.29 0.33 0.32 0.35 0.34 0.40 0.49 0.66 0.65 0.34 0.64 0.70 0.55 0.75 1.34 0.30 0.06 0.03 0.14 0.26 0.18 0.07 0.07 0.18 0.09 0.06 0.26 0.31 0.17 0.15 0.25 0.23 0.13 0.16 0.07 0.01 0.05 0.10 0.07
0.24 0.36 0.37 0.31 0.33 0.32 0.28 0.23 0.22 0.32 0.42 0.43 0.50 0.56 0.60 0.98 0.98 0.53 0.61 0.61 0.70 1.36 0.95 0.05 0.06 0.06 0.13 0.23 0.20 0.15 0.17 0.34 0.15 0.14 0.45 0.42 0.22 0.24 0.27 0.28 0.08 0.16 0.10 0.03 0.08 0.16 0.16
0.40 0.34 0.31 0.32 0.35 0.37 0.34 0.28 0.27 0.27 0.30 0.41 0.48 0.60 0.76 1.11 1.17 0.79 0.76 0.90 1.14 1.48 0.60 0.11 0.17 0.17 0.25 0.19 0.24 0.28 0.44 0.39 0.41 0.43 0.44 0.24 0.13 0.21 0.18 0.14 0.11 0.17 0.20 0.19 0.12 0.34 0.34
0.32 0.28 0.33 0.37 0.36 0.36 0.34 0.33 0.33 0.32 0.26 0.33 0.47 0.54 0.77 0.66 1.06 1.17 1.11 1.20 1.36 0.80 0.26 0.35 0.28 0.31 0.28 0.18 0.31 0.37 0.69 0.67 1.11 0.73 0.76 0.72 0.48 0.24 0.20 0.43 0.42 0.55 0.61 0.77 0.49 0.44 0.38
0.34 0.36 0.33 0.34 0.34 0.35 0.47 0.44 0.42 0.49 0.35 0.39 0.52 0.79 0.84 0.44 1.04 1.15 1.31 1.14 0.92 0.27 0.33 0.34 0.26 0.29 0.33 0.16 0.33 0.43 0.66 0.56 0.52 0.31 0.51 0.68 0.66 0.35 0.26 0.69 0.78 0.58 0.75 0.67 0.30 0.14 0.12
0.39 0.38 0.38 0.39 0.44 0.47 0.55 0.53 0.39 0.35 0.31 0.47 0.73 1.12 1.61 0.40 0.90 1.37 1.45 1.21 0.44 0.24 0.33 0.33 0.36 0.30 0.22 0.18 0.43 0.48 0.53 0.27 0.20 0.09 0.42 0.50 0.45 0.20 0.14 0.37 0.52 0.58 0.73 0.40 0.31 0.11 0.10
0.39 0.40 0.45 0.54 0.58 0.67 0.71 0.56 0.54 0.43 0.34 0.53 0.97 1.26 1.50 0.45 0.88 1.85 1.93 0.91 0.38 0.41 0.43 0.31 0.23 0.15 0.09 0.15 0.46 0.40 0.42 0.16 0.09 0.02 0.17 0.37 0.57 0.36 0.39 0.49 0.62 0.55 0.34 0.43 0.70 0.36 0.15
0.43 0.44 0.49 0.64 0.68 0.76 0.82 0.67 0.69 0.69 0.46 0.58 0.84 1.55 1.01 0.81 1.52 2.27 1.61 0.78 0.36 0.31 0.42 0.34 0.11 0.10 0.05 0.04 0.29 0.20 0.20 0.08 0.03 0.00 0.12 0.48 0.70 0.48 0.63 0.72 0.52 0.71 0.79 0.41 0.34 0.21 0.25
0.40 0.43 0.47 0.62 0.68 0.68 0.86 0.67 0.52 0.71 0.62 0.68 0.96 1.03 0.96 1.28 2.10 1.45 1.09 0.94 0.45 0.28 0.38 0.36 0.16 0.06 0.04 0.03 0.17 0.12 0.06 0.02 0.01 0.01 0.11 0.40 0.74 0.59 0.31 0.29 0.09 0.34 0.35 0.26 0.39 0.19 0.20
0.33 0.36 0.47 0.52 0.61 0.66 0.82 0.74 0.52 0.60 0.82 1.07 1.05 1.05 1.47 0.90 1.07 0.72 0.82 0.83 0.53 0.35 0.35 0.34 0.11 0.03 0.01 0.03 0.06 0.03 0.05 0.00 0.00 0.01 0.11 0.42 0.85 0.63 0.31 0.66 0.32 0.44 0.33 0.44 0.54 0.31 0.26
0.28 0.33 0.38 0.36 0.43 0.55 0.74 0.57 0.49 0.57 0.78 0.96 0.92 1.01 1.66 1.18 0.47 0.60 0.79 0.74 0.57 0.33 0.27 0.30 0.14 0.06 0.03 0.03 0.01 0.01 0.05 0.00 0.00 0.00 0.06 0.38 0.47 0.53 0.32 0.51 0.37 0.10 0.15 0.40 0.65 0.48 0.17
0.28 0.33 0.31 0.31 0.38 0.47 0.60 0.59 0.61 0.62 0.68 0.87 0.60 0.37 0.36 0.39 0.21 0.35 0.75 0.69 0.56 0.52 0.32 0.27 0.16 0.08 0.02 0.01 0.01 0.01 0.02 0.01 0.00 0.00 0.07 0.39 0.62 0.75 0.33 0.09 0.27 0.20 0.13 0.25 0.42 0.36 0.27
0.33 0.32 0.29 0.30 0.33 0.42 0.51 0.62 0.68 0.92 1.25 0.79 0.49 0.13 0.06 0.02 0.01 0.15 0.68 0.85 0.59 0.52 0.40 0.20 0.09 0.03 0.02 0.00 0.00 0.00 0.00 0.01 0.01 0.01 0.05 0.27 0.72 0.83 0.49 0.10 0.05 0.23 0.37 0.34 0.34 0.35 0.40
0.26 0.29 0.29 0.25 0.30 0.36 0.44 0.58 0.81 1.10 1.49 0.84 0.37 0.07 0.04 0.05 0.02 0.10 0.42 0.65 0.50 0.45 0.29 0.09 0.08 0.06 0.04 0.01 0.00 0.00 0.00 0.00 0.03 0.01 0.06 0.14 0.39 0.56 0.37 0.18 0.12 0.35 0.38 0.40 0.28 0.25 0.32
0.26 0.30 0.31 0.27 0.26 0.29 0.31 0.39 0.50 0.68 0.90 0.72 0.26 0.12 0.14 0.08 0.02 0.05 0.20 0.38 0.41 0.37 0.35 0.08 0.10 0.08 0.04 0.02 0.02 0.03 0.08 0.02 0.03 0.06 0.02 0.06 0.11 0.22 0.26 0.21 0.20 0.17 0.20 0.22 0.25 0.23 0.26
0.28 0.27 0.29 0.28 0.24 0.25 0.24 0.36 0.49 0.59 0.79 0.49 0.21 0.12 0.12 0.08 0.03 0.03 0.15 0.33 0.44 0.42 0.48 0.21 0.05 0.03 0.03 0.04 0.11 0.13 0.17 0.19 0.08 0.04 0.01 0.01 0.05 0.07 0.02 0.01 0.01 0.00 0.01 0.04 0.03 0.04 0.04
0.26 0.25 0.25 0.28 0.22 0.24 0.31 0.37 0.44 0.51 0.51 0.35 0.32 0.14 0.12 0.10 0.06 0.02 0.04 0.15 0.39 0.38 0.45 0.28 0.09 0.02 0.10 0.17 0.13 0.13 0.14 0.09 0.07 0.09 0.02 0.00 0.06 0.14 0.02 0.00 0.00 0.00 0.00 0.00 0.00 0.00 0.00
0.25 0.24 0.24 0.26 0.24 0.19 0.25 0.30 0.26 0.32 0.43 0.32 0.34 0.13 0.18 0.11 0.03 0.01 0.02 0.05 0.29 0.44 0.46 0.30 0.22 0.04 0.14 0.30 0.19 0.13 0.03 0.00 0.00 0.01 0.01 0.01 0.05 0.11 0.08 0.04 0.00 0.00 0.00 0.00 0.00 0.00 0.00
0.23 0.23 0.27 0.26 0.22 0.18 0.18 0.24 0.27 0.25 0.47 0.37 0.25 0.16 0.16 0.12 0.03 0.00 0.00 0.01 0.16 0.36 0.46 0.37 0.41 0.17 0.16 0.31 0.22 0.09 0.02 0.01 0.00 0.00 0.00 0.00 0.01 0.02 0.03 0.03 0.00 0.00 0.00 0.00 0.00 0.00 0.00
0.26 0.24 0.26 0.24 0.20 0.20 0.17 0.19 0.23 0.18 0.35 0.46 0.24 0.19 0.17 0.12 0.03 0.01 0.01 0.01 0.04 0.20 0.41 0.36 0.30 0.08 0.09 0.13 0.08 0.04 0.01 0.00 0.00 0.00 0.00 0.00 0.00 0.00 0.00 0.00 0.00 0.00 0.00 0.00 0.00 0.00 0.00